• In Hungary
  • List of Countries
  • For 7 days
  • Water Temperature
  • Satellite Maps
  • Weather Map
  • News
  • Weather Widgets
  • user-avatar
    Login

    Hourly Weather Folkern

    Today, 18 January, Thursday

    Time Temperature Precipitation Wind Pressure Humidity
    00:00 +2°C° 0.2 mm 5 mps 741 mmHg 70%
    01:00 +2°C° 0.4 mm 6 mps 741 mmHg 70%
    02:00 +2°C° 0.4 mm 6 mps 741 mmHg 70%
    03:00 +2°C° 0.4 mm 7 mps 741 mmHg 70%
    04:00 +2°C° 0.2 mm 7 mps 741 mmHg 70%
    05:00 +2°C° 0.2 mm 7 mps 741 mmHg 70%
    06:00 +1°C° 0.2 mm 8 mps 741 mmHg 70%
    07:00 +1°C° 0.3 mm 8 mps 742 mmHg 70%
    08:00 +1°C° 0.3 mm 8 mps 742 mmHg 70%
    09:00 +1°C° 0.3 mm 8 mps 743 mmHg 69%
    10:00 +1°C° 0.3 mm 8 mps 743 mmHg 69%
    11:00 +1°C° 0.3 mm 8 mps 744 mmHg 69%
    12:00 +1°C° 0.3 mm 8 mps 744 mmHg 68%
    13:00 +1°C° 0.3 mm 8 mps 744 mmHg 68%
    14:00 +1°C° 0.3 mm 9 mps 744 mmHg 68%
    15:00 +1°C° 0.3 mm 9 mps 745 mmHg 68%
    16:00 +1°C° 0.3 mm 9 mps 745 mmHg 68%
    17:00 +1°C° 0.3 mm 9 mps 745 mmHg 68%
    18:00 0°C° 0.3 mm 9 mps 745 mmHg 68%
    19:00 0°C° 0.3 mm 10 mps 745 mmHg 67%
    20:00 0°C° 0.3 mm 10 mps 745 mmHg 66%
    21:00 0°C° 0.3 mm 10 mps 745 mmHg 65%
    22:00 0°C° 0.4 mm 10 mps 745 mmHg 65%
    23:00 0°C° 0.4 mm 10 mps 745 mmHg 65%

    Tomorrow, 19 January, Friday

    Time Temperature Precipitation Wind Pressure Humidity
    00:00 0°C° 0.4 mm 10 mps 745 mmHg 65%
    01:00 0°C° 0.3 mm 10 mps 745 mmHg 65%
    02:00 0°C° 0.3 mm 10 mps 744 mmHg 65%
    03:00 0°C° 0.3 mm 10 mps 744 mmHg 65%
    04:00 0°C° 0.4 mm 10 mps 744 mmHg 64%
    05:00 0°C° 0.4 mm 10 mps 744 mmHg 62%
    06:00 0°C° 0.4 mm 10 mps 743 mmHg 60%
    07:00 0°C° 0.4 mm 9 mps 743 mmHg 61%
    08:00 0°C° 0.4 mm 8 mps 743 mmHg 61%
    09:00 0°C° 0.4 mm 8 mps 743 mmHg 62%
    10:00 0°C° 0.3 mm 8 mps 743 mmHg 62%
    11:00 +1°C° 0.3 mm 8 mps 744 mmHg 63%
    12:00 +1°C° 0.3 mm 8 mps 744 mmHg 64%
    13:00 +1°C° 0.4 mm 8 mps 744 mmHg 64%
    14:00 +1°C° 0.4 mm 9 mps 744 mmHg 64%
    15:00 +1°C° 0.4 mm 10 mps 745 mmHg 64%
    16:00 +1°C° 0.3 mm 10 mps 745 mmHg 64%
    17:00 +1°C° 0.3 mm 10 mps 745 mmHg 63%
    18:00 +1°C° 0.3 mm 10 mps 746 mmHg 63%
    19:00 +1°C° 0.3 mm 10 mps 746 mmHg 62%
    20:00 +1°C° 0.3 mm 10 mps 746 mmHg 62%
    21:00 +1°C° 0.3 mm 11 mps 746 mmHg 61%
    22:00 +1°C° 0.2 mm 11 mps 746 mmHg 61%
    23:00 +1°C° 0.2 mm 11 mps 747 mmHg 61%

    Day after tomorrow, 20 January, Saturday

    Time Temperature Precipitation Wind Pressure Humidity
    00:00 +2°C° 0.2 mm 11 mps 747 mmHg 61%
    01:00 +1°C° 0.1 mm 11 mps 747 mmHg 61%
    02:00 +1°C° 0.1 mm 10 mps 748 mmHg 62%
    03:00 +1°C° 0.1 mm 10 mps 748 mmHg 62%
    04:00 +1°C° 0 mm 9 mps 749 mmHg 62%
    05:00 0°C° 0 mm 8 mps 749 mmHg 62%
    06:00 0°C° 0 mm 7 mps 750 mmHg 62%
    07:00 0°C° 0 mm 7 mps 750 mmHg 62%
    08:00 +1°C° 0 mm 6 mps 751 mmHg 63%
    09:00 +1°C° 0 mm 5 mps 752 mmHg 63%
    10:00 +1°C° 0 mm 5 mps 752 mmHg 63%
    11:00 +3°C° 0 mm 4 mps 753 mmHg 64%
    12:00 +3°C° 0 mm 3 mps 753 mmHg 64%
    13:00 +4°C° 0 mm 2 mps 754 mmHg 63%
    14:00 +5°C° 0 mm 1 mps 754 mmHg 63%
    15:00 +5°C° 0 mm 1 mps 754 mmHg 62%
    16:00 +3°C° 0 mm 2 mps 754 mmHg 63%
    17:00 +2°C° 0 mm 3 mps 755 mmHg 64%
    18:00 +1°C° 0 mm 4 mps 755 mmHg 66%
    19:00 +1°C° 0 mm 5 mps 755 mmHg 67%
    20:00 0°C° 0 mm 7 mps 755 mmHg 69%
    21:00 0°C° 0 mm 8 mps 755 mmHg 71%
    22:00 +1°C° 0.1 mm 10 mps 754 mmHg 69%
    23:00 +1°C° 0.1 mm 11 mps 753 mmHg 67%

    21 January, Sunday

    Time Temperature Precipitation Wind Pressure Humidity
    00:00 0°C° 0.1 mm 13 mps 752 mmHg 66%
    01:00 -1°C° 0.9 mm 14 mps 751 mmHg 71%
    02:00 -1°C° 0.9 mm 15 mps 750 mmHg 76%
    03:00 -3°C° 0.9 mm 16 mps 749 mmHg 81%
    04:00 -2°C° 0.6 mm 16 mps 748 mmHg 82%
    05:00 -2°C° 0.6 mm 16 mps 746 mmHg 84%
    06:00 -2°C° 0.6 mm 16 mps 745 mmHg 85%
    07:00 0°C° 0.9 mm 15 mps 744 mmHg 87%
    08:00 +1°C° 0.9 mm 14 mps 744 mmHg 89%
    09:00 +3°C° 0.9 mm 13 mps 744 mmHg 92%
    10:00 +4°C° 0.4 mm 13 mps 744 mmHg 91%
    11:00 +4°C° 0.4 mm 12 mps 745 mmHg 91%
    12:00 +5°C° 0.4 mm 12 mps 746 mmHg 91%
    13:00 +6°C° 0 mm 11 mps 747 mmHg 86%
    14:00 +4°C° 0 mm 11 mps 748 mmHg 80%
    15:00 +5°C° 0 mm 10 mps 749 mmHg 75%
    16:00 +5°C° 0.1 mm 10 mps 749 mmHg 75%
    17:00 +5°C° 0.1 mm 10 mps 750 mmHg 75%
    18:00 +5°C° 0.1 mm 10 mps 751 mmHg 75%
    19:00 +5°C° 0.1 mm 10 mps 751 mmHg 75%
    20:00 +5°C° 0.1 mm 10 mps 751 mmHg 75%
    21:00 +5°C° 0.1 mm 10 mps 752 mmHg 74%
    22:00 +5°C° 0.1 mm 10 mps 752 mmHg 75%
    23:00 +5°C° 0.1 mm 9 mps 752 mmHg 76%

    22 January, Monday

    Time Temperature Precipitation Wind Pressure Humidity
    00:00 +5°C° 0.1 mm 9 mps 752 mmHg 76%
    01:00 +5°C° 0.1 mm 9 mps 752 mmHg 77%
    02:00 +5°C° 0.1 mm 9 mps 752 mmHg 77%
    03:00 +5°C° 0.1 mm 9 mps 752 mmHg 78%
    04:00 +5°C° 0.1 mm 9 mps 752 mmHg 79%
    05:00 +5°C° 0.1 mm 9 mps 752 mmHg 79%
    06:00 +5°C° 0.1 mm 9 mps 751 mmHg 80%
    07:00 +5°C° 0.1 mm 8 mps 751 mmHg 81%
    08:00 +5°C° 0.1 mm 8 mps 751 mmHg 82%
    09:00 +5°C° 0.1 mm 8 mps 750 mmHg 83%
    10:00 +5°C° 0.1 mm 8 mps 750 mmHg 84%
    11:00 +4°C° 0.1 mm 8 mps 749 mmHg 85%
    12:00 +4°C° 0.1 mm 8 mps 748 mmHg 86%
    13:00 +4°C° 0.1 mm 7 mps 748 mmHg 85%
    14:00 +4°C° 0.1 mm 6 mps 747 mmHg 85%
    15:00 +5°C° 0.1 mm 5 mps 746 mmHg 85%
    16:00 +3°C° 0 mm 6 mps 746 mmHg 86%
    17:00 +3°C° 0 mm 6 mps 746 mmHg 87%
    18:00 +3°C° 0 mm 7 mps 745 mmHg 88%
    19:00 +2°C° 0.1 mm 8 mps 745 mmHg 88%
    20:00 +3°C° 0.1 mm 9 mps 744 mmHg 88%
    21:00 +3°C° 0.1 mm 10 mps 743 mmHg 87%
    22:00 +4°C° 1.5 mm 11 mps 743 mmHg 88%
    23:00 +4°C° 1.5 mm 12 mps 743 mmHg 89%

    23 January, Tuesday

    Time Temperature Precipitation Wind Pressure Humidity
    00:00 +5°C° 1.5 mm 13 mps 742 mmHg 89%
    01:00 +5°C° 0 mm 12 mps 743 mmHg 84%
    02:00 +5°C° 0 mm 12 mps 744 mmHg 78%
    03:00 +6°C° 0 mm 11 mps 745 mmHg 73%
    04:00 +4°C° 0.1 mm 11 mps 746 mmHg 73%
    05:00 +4°C° 0.1 mm 11 mps 746 mmHg 72%
    06:00 +4°C° 0.1 mm 11 mps 747 mmHg 72%
    07:00 +4°C° 0.1 mm 11 mps 747 mmHg 73%
    08:00 +4°C° 0.1 mm 11 mps 747 mmHg 74%
    09:00 +4°C° 0.1 mm 12 mps 748 mmHg 74%
    10:00 +5°C° 0 mm 12 mps 747 mmHg 76%
    11:00 +5°C° 0 mm 13 mps 747 mmHg 77%
    12:00 +5°C° 0 mm 13 mps 747 mmHg 78%
    13:00 +5°C° 1.2 mm 15 mps 745 mmHg 81%
    14:00 +5°C° 1.2 mm 17 mps 743 mmHg 84%
    15:00 +5°C° 1.2 mm 19 mps 741 mmHg 87%
    16:00 +5°C° 1.6 mm 18 mps 741 mmHg 87%
    17:00 +6°C° 1.6 mm 18 mps 740 mmHg 87%
    18:00 +6°C° 1.6 mm 17 mps 740 mmHg 87%
    19:00 +6°C° 0.2 mm 17 mps 740 mmHg 78%
    20:00 +6°C° 0.2 mm 18 mps 740 mmHg 69%
    21:00 +5°C° 0.2 mm 18 mps 740 mmHg 60%
    22:00 +5°C° 0 mm 17 mps 741 mmHg 62%
    23:00 +5°C° 0 mm 16 mps 742 mmHg 63%
    Show more